Showing default

SURCAL 150B, 2909

Orbit data source: Space-Track

SURCAL 150B, 2909 is a payload satellite owned by NRL (US) in LEO that was launched on Wed, 31 May 1967 UTC via a THOR SLV-2 AGENA D launch vehicle from the Air Force Western Test Range (AFWTR). Payload-class satellites include a variety of spacecraft equipped with specific instruments for various scientific and technological missions. These include communications satellites like Starlink; space stations such as the ISS; scientific satellites like the Hubble; Earth observation satellites from companies like Planet Labs, Umbra, and HawkEye 360; GPS; miniature CubeSats for education and research; and military/defense satellites.

Loading next visibility...
Identifier
2909, 1967-053J
Orbit
LEO
Last TLE update
8 hours ago
Origin
Manufacturer
NRL
Mission
Operational Defense Calibration
Bus & Motor
SURCAL?, Unknown motor
Mass
~5 kg wet, ~5 kg dry
Launch date (UTC)
1967-05-31 (58 years ago)
Launch vehicle
THOR SLV-2 AGENA D
Launch site
Air Force Western Test Range (AFWTR)
Object type
Payload
Rocket body
Debris
Shape & HBR
Box, 0.2 m
Radar Cross Section
0.060 m², Small (<0.1 m²)

Expand to show TLE details & history

TLE from 8 hours ago
0 SURCAL 150B
1 02909U 67053J   25183.92173890  .00063507  00000-0  23490-2 0  9990
2 02909  69.9220  63.4924 0011568 195.0341 165.0490 15.27298904 28150
Epoch: 2025-07-02T22:07Z
TLE epoch observation values (Epoch: 2025-07-02T22:07:18.24Z)
Latitude
-0.00009°
Longitude
170.47047°
Altitude
494.011 km
Speed
7.614 km/s
True Right ascension
04h 13m 58s
True Declination
0° 00' 00"
Sunlit
Object was in daylight at epoch
Visualization orbit readout
Latitude
-67.99212°
Longitude
105.57169°
Altitude
508.053 km
Speed
7.609 km/s
Apparent Right ascension
03h 39m 07s
Apparent Declination
-60° 45' 16"
Sunlit
Object is in full shadow
Visualization observer readout
Local Sidereal Time
17:23:15
Azimuth
151.046° SSE
Elevation
-63.712°
Doppler factor
1
Orbital elements
Apogee altitude
489.757 km
Perigee altitude
473.886 km
Semi-major axis
6,859.958 km
Eccentricity
0.00116
Inclination
69.922°
RAAN
63.4924°
Arg. of periapsis
195.0341°
True anomaly
Unknown
Mean anomaly
165.049°
Eccentric anomaly
Unknown
Mean motion
3.81998 °/min
Orbital period
94.24 mins
BSTAR
0.002349
Loading maneuver chart data...
Loading SW <> Apogee altitude chart data...
Loading historical data...
Loading historical data...
Loading historical data...
Loading historical data...
Loading historical data...
Loading historical data...
Loading historical data...

SURCAL 150B Visibility forecast

Observer location: undefined°, undefined°

Span
Click to sort rows by Start time (UTC) header in descending order
Start Az.
Max El. time (UTC)
Max El. Az.
Max El.
End time (UTC)
End Az.
6 mins2025-07-03 17:06:42.617Z184.927° SSW2025-07-03 17:09:42.617Z123.625° SE37.167°2025-07-03 17:12:42.617Z38.856° NE
5 mins2025-07-04 02:58:42.617Z336.257° NNW2025-07-04 03:00:42.617Z111.049° ESE44.99°2025-07-04 03:03:42.617Z156.089° SSE
|